FW3921 Weather Reports


Display with metric or nautical units.
time (UTC)temp
F
wind
direction
speed
MPH
gust
MPH
rain 1hr
in
rain 24hr
in
rain mn
in
humidity
%
barometer
mb
20191019110205 73 149 1.0 4.0 0.00 0.00 0.02 82 1011.4
20191019105704 73 139 1.0 4.0 0.00 0.00 0.02 83 1011.4
20191019105203 73 152 0.0 3.0 0.00 0.00 0.02 82 1011.4
20191019104703 73 160 0.0 3.0 0.00 0.00 0.02 82 1011.4
20191019104206 73 200 1.0 3.0 0.00 0.00 0.02 82 1011.5
20191019103701 73 228 0.0 3.0 0.00 0.00 0.02 83 1011.5
20191019103202 72 159 0.0 3.0 0.00 0.00 0.02 82 1011.7
20191019102659 73 145 0.0 2.0 0.00 0.00 0.02 82 1011.8
20191019102159 72 231 0.0 2.0 0.00 0.00 0.02 83 1011.7
20191019101659 72 195 0.0 3.0 0.00 0.00 0.02 84 1011.7
20191019101158 72 95 0.0 3.0 0.00 0.00 0.02 84 1011.6
20191019100655 72 191 0.0 3.0 0.00 0.00 0.02 84 1011.8
20191019100155 72 239 1.0 4.0 0.00 0.00 0.02 84 1012.0
20191019095658 72 231 1.0 6.0 0.00 0.00 0.02 85 1012.1
20191019095155 71 281 1.0 6.0 0.00 0.00 0.02 85 1012.1
20191019094655 71 242 1.0 6.0 0.00 0.00 0.02 87 1012.2
20191019094155 71 206 2.0 6.0 0.00 0.00 0.02 87 1012.3
20191019093655 71 264 2.0 6.0 0.00 0.00 0.02 87 1012.4
20191019093155 70 242 2.0 6.0 0.00 0.00 0.02 86 1012.5
20191019092654 70 240 2.0 6.0 0.00 0.00 0.02 87 1012.6
20191019092155 70 150 2.0 6.0 0.00 0.00 0.02 86 1012.6
20191019091655 71 266 1.0 6.0 0.00 0.00 0.02 86 1012.6
20191019091156 71 185 1.0 4.0 0.00 0.00 0.02 87 1012.7
20191019090655 71 236 1.0 4.0 0.00 0.00 0.02 87 1012.8
20191019090151 71 161 1.0 4.0 0.00 0.00 0.02 87 1012.9
20191019085651 71 200 0.0 4.0 0.00 0.00 0.02 87 1012.9
20191019085154 71 239 1.0 3.0 0.00 0.00 0.02 88 1012.9
20191019084649 70 232 1.0 4.0 0.00 0.00 0.02 88 1012.9
20191019084149 70 240 1.0 5.0 0.00 0.00 0.02 88 1012.9
20191019083648 70 236 1.0 5.0 0.00 0.00 0.02 87 1012.9
20191019083149 71 175 0.0 4.0 0.00 0.00 0.02 87 1013.1
20191019082649 71 146 0.0 1.0 0.00 0.00 0.02 89 1013.1
20191019082150 71 177 0.0 2.0 0.00 0.00 0.02 89 1013.1
20191019081648 70 219 1.0 3.0 0.00 0.00 0.02 89 1013.2
20191019081147 70 223 1.0 4.0 0.00 0.00 0.02 89 1013.2
20191019080646 70 206 1.0 4.0 0.00 0.00 0.02 89 1013.3
20191019080147 71 238 0.0 3.0 0.00 0.00 0.02 89 1013.3
20191019075643 71 181 0.0 1.0 0.00 0.00 0.02 90 1013.3
20191019075141 71 154 0.0 0.0 0.00 0.00 0.02 92 1013.2
20191019074641 70 146 0.0 0.0 0.00 0.00 0.02 92 1013.2
20191019074141 70 160 0.0 0.0 0.00 0.00 0.02 92 1013.2
20191019073639 69 257 0.0 0.0 0.00 0.00 0.02 93 1013.3
20191019073138 69 220 0.0 1.0 0.00 0.00 0.02 93 1013.3
20191019072638 68 281 0.0 3.0 0.00 0.00 0.02 94 1013.3
20191019072137 68 259 0.0 3.0 0.00 0.00 0.02 93 1013.4
20191019071638 67 289 0.0 5.0 0.00 0.00 0.02 94 1013.5
20191019071137 67 271 0.0 5.0 0.00 0.00 0.02 94 1013.6
20191019070637 67 261 1.0 4.0 0.00 0.00 0.02 94 1013.7
20191019070137 67 159 1.0 4.0 0.00 0.00 0.02 93 1013.7
20191019065636 67 217 1.0 4.0 0.00 0.00 0.02 93 1013.8
20191019065137 67 231 1.0 4.0 0.00 0.00 0.02 93 1013.8
20191019064637 67 176 1.0 4.0 0.00 0.00 0.02 93 1013.8
20191019064136 67 266 0.0 3.0 0.00 0.00 0.02 94 1013.7
20191019063637 67 265 0.0 3.0 0.00 0.00 0.02 94 1013.7
20191019063134 67 231 0.0 3.0 0.00 0.00 0.02 94 1013.7
20191019062635 67 236 0.0 0.0 0.00 0.00 0.02 94 1013.7
20191019062135 66 271 0.0 0.0 0.00 0.00 0.02 94 1013.8
20191019061633 66 255 0.0 0.0 0.00 0.00 0.02 94 1013.7
20191019061132 66 277 0.0 0.0 0.00 0.00 0.02 94 1013.7
20191019060631 66 256 0.0 0.0 0.00 0.00 0.02 94 1013.6
20191019060128 66 175 0.0 0.0 0.00 0.00 0.02 94 1013.7
20191019055628 66 176 0.0 0.0 0.00 0.00 0.02 94 1013.7
20191019055126 65 175 0.0 0.0 0.00 0.00 0.02 94 1013.6
20191019054626 65 228 0.0 0.0 0.00 0.00 0.02 94 1013.7
20191019054126 65 228 0.0 0.0 0.00 0.00 0.02 94 1013.6
20191019053624 65 228 0.0 0.0 0.00 0.00 0.02 94 1013.5
20191019053124 65 229 0.0 0.0 0.00 0.00 0.02 94 1013.4
20191019052624 65 153 0.0 0.0 0.00 0.00 0.02 94 1013.2
20191019052124 65 153 0.0 0.0 0.00 0.00 0.02 94 1013.1
20191019051632 65 153 0.0 0.0 0.00 0.00 0.02 94 1013.1
20191019051124 65 153 0.0 0.0 0.00 0.00 0.02 94 1013.1
20191019050623 65 154 0.0 0.0 0.00 0.00 0.02 94 1012.9
20191019050125 65 150 0.0 0.0 0.00 0.00 0.02 94 1013.2
20191019045621 65 151 0.0 0.0 0.00 0.00 0.02 94 1012.9
20191019045120 66 101 0.0 0.0 0.00 0.00 0.02 94 1013.0
20191019044620 66 101 0.0 0.0 0.00 0.00 0.02 94 1012.8
20191019044120 66 101 0.0 0.0 0.00 0.00 0.02 94 1012.9
20191019043619 66 68 0.0 0.0 0.00 0.00 0.02 94 1012.9
20191019043117 66 39 0.0 0.0 0.00 0.00 0.02 95 1013.0
20191019042617 66 323 0.0 0.0 0.00 0.00 0.02 95 1012.9
20191019042125 65 309 0.0 0.0 0.00 0.00 0.02 95 1012.8
20191019041620 65 316 0.0 0.0 0.00 0.00 0.02 95 1012.7
20191019041115 65 316 0.0 3.0 0.00 0.00 0.02 95 1012.6
20191019040611 65 318 1.0 3.0 0.00 0.00 0.02 95 1012.4
20191019040116 64 290 0.0 3.0 0.00 0.00 0.02 95 1012.4
20191019035610 64 307 1.0 3.0 0.00 0.00 0.02 95 1012.3
20191019035108 64 328 1.0 3.0 0.00 0.00 0.02 95 1012.3
20191019034608 64 281 1.0 3.0 0.00 0.00 0.02 94 1012.2
20191019034109 64 297 0.0 3.0 0.00 0.00 0.02 94 1012.1
20191019033607 64 327 0.0 1.0 0.00 0.00 0.02 94 1011.9
20191019033109 64 300 0.0 2.0 0.00 0.00 0.02 94 1011.9
20191019032602 64 296 0.0 2.0 0.00 0.00 0.02 94 1012.0
20191019032106 64 305 0.0 2.0 0.00 0.00 0.02 94 1012.1
20191019031601 64 269 1.0 4.0 0.00 0.00 0.02 94 1012.0
20191019031101 64 274 0.0 4.0 0.00 0.00 0.02 94 1012.3
20191019030601 64 286 0.0 0.0 0.00 0.00 0.02 95 1012.3
20191019025645 64 271 0.0 0.0 0.00 0.03 0.02 95 1012.2
20191019025145 64 298 0.0 0.0 0.00 0.03 0.02 95 1012.2
20191019024643 64 334 0.0 0.0 0.00 0.03 0.02 95 1012.2
20191019024138 64 298 0.0 0.0 0.00 0.03 0.02 95 1012.3
20191019023638 64 288 0.0 0.0 0.00 0.03 0.02 95 1012.2
20191019023138 64 317 0.0 0.0 0.00 0.03 0.02 95 1012.3
20191019022637 64 316 0.0 0.0 0.00 0.03 0.02 95 1012.3
20191019022135 64 303 0.0 0.0 0.00 0.03 0.02 95 1012.3
20191019021634 64 307 0.0 2.0 0.00 0.03 0.02 95 1012.5
20191019021131 63 334 0.0 2.0 0.00 0.03 0.02 95 1012.5
20191019020631 63 321 1.0 4.0 0.00 0.03 0.02 95 1012.6
20191019020131 63 282 2.0 4.0 0.00 0.03 0.02 95 1012.6
20191019015631 63 313 1.0 4.0 0.00 0.03 0.02 95 1012.6
20191019015130 63 330 1.0 4.0 0.00 0.03 0.02 95 1012.5
20191019014635 63 311 1.0 4.0 0.00 0.03 0.02 95 1012.5
20191019014127 63 307 1.0 4.0 0.00 0.03 0.02 95 1012.4
20191019013627 63 328 1.0 3.0 0.01 0.03 0.02 95 1012.6
20191019013127 63 302 1.0 3.0 0.01 0.03 0.02 95 1012.3
20191019012628 63 295 0.0 3.0 0.01 0.03 0.02 95 1012.2
20191019012126 63 335 0.0 2.0 0.01 0.03 0.02 95 1012.2
20191019011626 63 279 0.0 2.0 0.01 0.03 0.02 95 1012.2
20191019011126 63 288 0.0 0.0 0.01 0.03 0.02 95 1012.1
20191019010620 63 290 0.0 0.0 0.01 0.03 0.02 95 1012.1
20191019010118 63 303 0.0 0.0 0.01 0.03 0.02 95 1012.2
20191019005618 63 287 0.0 0.0 0.01 0.03 0.02 95 1012.2
20191019005119 63 305 0.0 0.0 0.01 0.03 0.02 95 1012.2
20191019004617 64 288 0.0 0.0 0.01 0.03 0.02 95 1012.4
20191019004116 64 4 0.0 0.0 0.00 0.02 0.02 95 1012.1
20191019003614 64 18 0.0 0.0 0.00 0.02 0.01 95 1012.4
20191019003114 64 347 0.0 0.0 0.00 0.02 0.01 95 1012.2
20191019002610 64 355 0.0 2.0 0.00 0.02 0.01 95 1012.3
20191019002109 64 40 0.0 2.0 0.00 0.02 0.01 95 1012.3
20191019001608 64 312 0.0 0.0 0.00 0.02 0.01 95 1012.5
20191019001108 64 349 0.0 0.0 0.00 0.02 0.01 95 1012.7
20191019000605 64 323 0.0 2.0 0.00 0.02 0.01 95 1012.9
20191019000109 64 295 0.0 2.0 0.00 0.02 0.01 95 1012.8
20191018235607 64 337 0.0 1.0 0.00 0.02 0.01 95 1012.6
20191018235105 64 320 0.0 2.0 0.00 0.02 0.01 95 1012.7
20191018234605 64 295 0.0 2.0 0.00 0.02 0.01 95 1012.8
20191018234109 64 306 0.0 0.0 0.00 0.02 0.01 95 1012.9
20191018233604 64 298 0.0 0.0 0.00 0.02 0.01 95 1012.8
20191018233100 64 267 0.0 0.0 0.00 0.02 0.01 95 1012.9
20191018232600 64 302 0.0 0.0 0.01 0.02 0.01 95 1013.0
20191018232101 64 228 0.0 2.0 0.01 0.02 0.01 95 1013.0
20191018231601 64 99 0.0 2.0 0.01 0.02 0.01 95 1012.9
20191018231101 64 110 0.0 0.0 0.01 0.02 0.01 95 1013.2
20191018230559 64 295 0.0 0.0 0.01 0.02 0.01 95 1013.5
20191018230109 64 295 0.0 0.0 0.01 0.02 0.01 95 1013.8
20191018225556 64 295 0.0 0.0 0.01 0.02 0.01 95 1014.2
20191018225054 64 302 0.0 0.0 0.01 0.02 0.01 95 1014.5
20191018224552 64 328 0.0 0.0 0.01 0.02 0.01 95 1014.7
20191018224049 64 302 0.0 1.0 0.01 0.02 0.01 95 1014.8
20191018223547 65 302 0.0 3.0 0.01 0.02 0.01 95 1015.0
20191018223051 65 316 0.0 4.0 0.01 0.02 0.01 95 1015.0
20191018222550 65 307 0.0 4.0 0.00 0.02 0.00 95 1015.1
20191018222050 65 250 0.0 4.0 0.00 0.02 0.00 95 1014.5
20191018221549 65 239 1.0 6.0 0.00 0.02 0.00 95 1014.6
20191018221048 65 265 1.0 6.0 0.00 0.02 0.00 95 1014.8
20191018220544 65 276 2.0 6.0 0.00 0.02 0.00 95 1015.0
20191018220045 65 279 2.0 6.0 0.00 0.02 0.00 95 1015.0
20191018215551 64 304 1.0 5.0 0.00 0.02 0.02 95 1015.1
20191018215052 64 271 2.0 8.0 0.00 0.02 0.02 94 1014.8
20191018214547 65 290 3.0 8.0 0.00 0.02 0.02 94 1014.8
20191018214047 65 266 4.0 8.0 0.00 0.02 0.02 94 1014.8
20191018213544 65 257 2.0 8.0 0.00 0.02 0.02 94 1014.7
20191018213043 65 298 2.0 8.0 0.00 0.02 0.02 94 1014.5
20191018212548 65 260 3.0 8.0 0.00 0.02 0.02 94 1014.3
20191018212044 65 271 3.0 8.0 0.00 0.02 0.02 95 1014.3
20191018211544 65 310 2.0 8.0 0.00 0.02 0.02 95 1014.2
20191018211045 65 253 1.0 6.0 0.00 0.02 0.02 95 1013.8
20191018210545 65 45 2.0 6.0 0.00 0.02 0.02 95 1013.2
20191018210044 65 338 2.0 7.0 0.00 0.02 0.02 95 1013.2
20191018205543 65 34 2.0 7.0 0.01 0.02 0.02 95 1013.0
20191018205038 65 341 2.0 8.0 0.01 0.02 0.02 95 1012.9
20191018204541 65 36 2.0 8.0 0.01 0.02 0.02 94 1012.5
20191018204041 65 35 2.0 7.0 0.01 0.02 0.02 94 1012.9
20191018203537 65 24 2.0 7.0 0.01 0.02 0.02 94 1012.7
20191018203038 65 30 2.0 6.0 0.01 0.02 0.02 95 1012.9
20191018202533 65 18 3.0 6.0 0.01 0.02 0.02 94 1012.9
20191018202033 65 328 3.0 6.0 0.01 0.02 0.02 94 1013.1
20191018201533 65 56 3.0 7.0 0.01 0.02 0.02 94 1013.2
20191018201032 65 23 3.0 7.0 0.01 0.02 0.02 94 1013.1
20191018200533 65 35 2.0 6.0 0.01 0.02 0.02 94 1013.4
20191018200033 65 359 1.0 6.0 0.01 0.02 0.02 94 1013.6
20191018195533 65 31 0.0 3.0 0.00 0.01 0.01 94 1013.6
20191018195034 65 49 0.0 3.0 0.01 0.01 0.01 94 1013.6
20191018194531 65 59 0.0 0.0 0.01 0.01 0.01 94 1013.9
20191018194029 65 97 0.0 0.0 0.01 0.01 0.01 94 1014.0
20191018193528 65 104 0.0 0.0 0.01 0.01 0.01 94 1013.9
20191018193031 65 110 0.0 0.0 0.01 0.01 0.01 94 1013.8
20191018192524 65 340 0.0 1.0 0.01 0.01 0.01 94 1014.0
20191018192024 65 328 0.0 1.0 0.01 0.01 0.01 93 1014.2
20191018191519 65 332 0.0 1.0 0.01 0.01 0.01 94 1014.5
20191018191020 65 311 0.0 0.0 0.01 0.01 0.01 93 1014.6
20191018190523 65 283 0.0 0.0 0.01 0.01 0.01 93 1014.4
20191018190021 65 283 0.0 4.0 0.01 0.01 0.01 93 1014.7
20191018185516 65 279 1.0 6.0 0.01 0.01 0.01 93 1014.8
20191018185017 66 260 1.0 6.0 0.00 0.00 0.00 93 1014.8
20191018184517 66 271 0.0 4.0 0.00 0.00 0.00 93 1014.8
20191018184012 66 257 1.0 9.0 0.00 0.00 0.00 93 1015.0
20191018183514 66 273 2.0 9.0 0.00 0.00 0.00 93 1015.5
20191018183012 66 255 2.0 8.0 0.00 0.00 0.00 93 1015.8
20191018182508 66 225 3.0 8.0 0.00 0.00 0.00 93 1015.7
20191018182010 66 264 3.0 9.0 0.00 0.00 0.00 93 1015.6
20191018181507 66 245 3.0 9.0 0.00 0.00 0.00 93 1015.8
20191018181010 66 293 4.0 11.0 0.00 0.00 0.00 93 1016.1
20191018180508 66 325 5.0 12.0 0.00 0.00 0.00 93 1016.2
20191018180012 66 314 5.0 12.0 0.00 0.00 0.00 93 1016.6
20191018175508 66 271 4.0 12.0 0.00 0.00 0.00 93 1016.3
20191018175004 65 284 2.0 11.0 0.00 0.00 0.00 93 1015.2
20191018174505 65 325 0.0 3.0 0.00 0.00 0.00 92 1014.4
20191018174004 65 259 0.0 3.0 0.00 0.00 0.00 92 1013.3
20191018173502 65 234 0.0 2.0 0.00 0.00 0.00 92 1013.4
20191018173005 65 244 0.0 2.0 0.00 0.00 0.00 91 1012.8
20191018172502 66 217 0.0 2.0 0.00 0.00 0.00 91 1012.7
20191018172005 66 148 0.0 1.0 0.00 0.00 0.00 91 1012.6
20191018171458 66 155 0.0 3.0 0.00 0.00 0.00 91 1012.7
20191018170958 67 165 0.0 3.0 0.00 0.00 0.00 90 1012.8
20191018170503 67 146 0.0 1.0 0.00 0.00 0.00 90 1012.9
20191018165956 67 274 0.0 0.0 0.00 0.00 0.00 90 1013.4
20191018165454 67 274 0.0 1.0 0.00 0.00 0.00 90 1013.3
20191018164957 67 274 0.0 1.0 0.00 0.00 0.00 90 1013.6
20191018164449 68 270 0.0 1.0 0.00 0.00 0.00 89 1013.7
20191018163946 68 269 0.0 3.0 0.00 0.00 0.00 89 1013.8
20191018163447 68 315 1.0 3.0 0.00 0.00 0.00 89 1014.0
20191018162946 68 316 0.0 3.0 0.00 0.00 0.00 89 1014.2
20191018162447 68 309 1.0 5.0 0.00 0.00 0.00 89 1014.0
20191018161949 68 305 1.0 5.0 0.00 0.00 0.00 89 1014.1
20191018161442 68 279 2.0 7.0 0.00 0.00 0.00 89 1014.1
20191018160942 68 281 2.0 7.0 0.00 0.00 0.00 89 1014.2
20191018160442 68 313 2.0 8.0 0.00 0.00 0.00 89 1013.9
20191018155940 68 246 3.0 10.0 0.00 0.00 0.00 89 1013.9
20191018155439 68 307 4.0 10.0 0.00 0.00 0.00 89 1014.2
20191018154939 68 37 4.0 11.0 0.00 0.00 0.00 89 1014.4
20191018154444 68 312 4.0 10.0 0.00 0.00 0.00 89 1014.0
20191018153935 68 302 3.0 8.0 0.00 0.00 0.00 88 1013.6
20191018153437 68 310 3.0 9.0 0.00 0.00 0.00 88 1013.4
20191018152936 68 283 3.0 11.0 0.00 0.00 0.00 88 1013.3
20191018152436 68 255 3.0 11.0 0.00 0.00 0.00 88 1013.2
20191018151936 69 299 3.0 10.0 0.00 0.00 0.00 87 1013.1
20191018151436 69 282 3.0 10.0 0.00 0.00 0.00 87 1012.9
20191018150933 69 280 3.0 11.0 0.00 0.00 0.00 87 1012.9
20191018150429 69 272 4.0 11.0 0.00 0.00 0.00 87 1012.9
20191018145928 69 279 4.0 12.0 0.00 0.00 0.00 87 1012.9
20191018145428 69 249 4.0 12.0 0.00 0.00 0.00 86 1012.8
20191018144927 69 238 3.0 11.0 0.00 0.00 0.00 86 1012.8
20191018144426 69 245 3.0 9.0 0.00 0.00 0.00 86 1012.7
20191018143926 69 352 3.0 9.0 0.00 0.00 0.00 85 1012.8
20191018143427 70 220 3.0 9.0 0.00 0.00 0.00 85 1012.7
20191018142923 70 178 3.0 9.0 0.00 0.00 0.00 85 1012.6
20191018142422 70 250 2.0 7.0 0.00 0.00 0.00 85 1012.8
20191018141920 70 231 2.0 7.0 0.00 0.00 0.00 85 1012.6
20191018141419 70 256 2.0 6.0 0.00 0.00 0.00 85 1012.6
20191018140920 70 273 2.0 5.0 0.00 0.00 0.00 85 1012.6
20191018140418 70 247 2.0 6.0 0.00 0.00 0.00 85 1012.6
20191018135919 70 229 2.0 7.0 0.00 0.00 0.00 84 1012.6
20191018135418 70 299 2.0 7.0 0.00 0.00 0.00 85 1012.7
20191018134918 70 271 2.0 7.0 0.00 0.00 0.00 85 1012.7
20191018134419 70 280 3.0 7.0 0.00 0.00 0.00 85 1012.7
20191018133919 71 257 3.0 8.0 0.00 0.00 0.00 85 1012.7
20191018133420 70 260 3.0 9.0 0.00 0.00 0.00 85 1012.7
20191018132918 70 207 3.0 9.0 0.00 0.00 0.00 86 1012.7
20191018132419 70 219 3.0 10.0 0.00 0.00 0.00 87 1012.7
20191018131919 70 257 2.0 10.0 0.00 0.00 0.00 86 1012.5
20191018131422 70 231 3.0 11.0 0.00 0.00 0.00 86 1012.6
20191018130922 70 215 3.0 11.0 0.00 0.00 0.00 86 1012.7
20191018130422 70 320 3.0 4.0 0.00 0.00 0.00 85 1012.7
20191018125817 70 271 3.0 9.0 0.00 0.00 0.00 86 1012.8
20191018125319 70 253 3.0 9.0 0.00 0.00 0.00 86 1012.8
20191018124816 69 286 3.0 9.0 0.00 0.00 0.00 86 1012.8
20191018124317 69 221 4.0 11.0 0.00 0.00 0.00 86 1012.8
20191018123817 69 108 3.0 11.0 0.00 0.00 0.00 86 1012.9
20191018123316 70 206 3.0 11.0 0.00 0.00 0.00 86 1012.9
20191018122817 70 259 3.0 11.0 0.00 0.00 0.00 86 1013.0
20191018122317 70 277 4.0 10.0 0.00 0.00 0.00 86 1013.1
20191018121817 70 272 4.0 10.0 0.00 0.00 0.00 86 1013.2
20191018121315 70 267 4.0 10.0 0.00 0.00 0.00 85 1013.3
20191018120814 70 227 4.0 9.0 0.00 0.00 0.00 85 1013.2
20191018120315 70 283 4.0 12.0 0.00 0.00 0.00 86 1013.2
20191018115814 70 271 4.0 12.0 0.00 0.00 0.00 85 1013.3
20191018115309 70 262 4.0 9.0 0.00 0.00 0.00 85 1013.3
20191018114812 70 258 4.0 10.0 0.00 0.00 0.00 85 1013.4
20191018114311 70 279 4.0 12.0 0.00 0.00 0.00 85 1013.3
20191018113811 70 209 4.0 12.0 0.00 0.00 0.00 85 1013.4
20191018113311 71 283 4.0 11.0 0.00 0.00 0.00 84 1013.5
20191018112811 71 250 5.0 11.0 0.00 0.00 0.00 84 1013.5
20191018112313 71 326 5.0 12.0 0.00 0.00 0.00 84 1013.4
20191018111809 71 203 5.0 12.0 0.00 0.00 0.00 84 1013.4
20191018111309 71 243 4.0 11.0 0.00 0.00 0.00 84 1013.5
20191018110807 71 267 5.0 12.0 0.00 0.00 0.00 85 1013.5
20191018110306 71 312 5.0 12.0 0.00 0.00 0.00 84 1013.5